Location: Newark
(33.9035°S, 18.4112°E)
Time: 21:04:21
(UTC+00:00)

STARLINK-1107 - Pass Details

Date: 22 January 2020
Orbit: 345 x 354 km, 53.0° (Epoch: 18 February)

Event Time Altitude Azimuth Distance (km) Brightness Sun altitude
Exits shadow 01:48:23 27° 96° (E) 724 4.7 -22.6°
Drops below altitude 10° 01:50:06 10° 119° (ESE) 1,324 6.6 -22.4°
Enters shadow 02:43:36 -73° 315° (NW) 12,555 10.5 -14.0°
